map of MEA home
MEA - Airport
Location
City:  Macaé, Rio de Janeiro, Brazil
ICAO:SBME
IATA:MEA

Details
Type:Airport (Aerodrome, Airfield)
Latitude:22°20'35"S (-22.343030)
Longitude:41°45'58"W (-41.766032)
Datum:WGS 1984
Elevation:8 ft (2 m)
Variation:23.29°W (WMM2015 magnetic declination)
-0.09° annual change
Runways:1
Longest:3937 × 98 ft (1200 × 30 m), paved

Time
Time Zone:UTC-3 (DST-2)
Local Time:

Weather
METAR:SBME 172300Z 02010KT CAVOK 26/22 Q1014
TAF:SBME 171330Z 1718/1806 06015KT 9999 SCT020 FEW030TCU TX32/1718Z TN24/1806Z
BECMG 1720/1721 03010KT FEW020
BECMG 1722/1724 35005KT
BECMG 1801/1802 CAVOK
RMK PGS

Related Locations
Nearby:
Farthest:IWO: 12181 mi / 19604 km
Iwo Jima [Iwo Jima AB], Iwo Jima Island, 13, JP

Find:

   beyond  
but within

Other Information
Maps:
NOTAMs:
Links:
Sources:

  
flag of Brazil
flag of Rio de Janeiro
  

Sectional Chart

Flight Planning
at skyvector.com

Satellite Image

Google Maps Satellite view

 

Copyright © 2004-2017 Karl L. Swartz. All rights reserved.
The Great Circle Mapper name and logo are trademarks of the Great Circle Mapper.
All other trademarks mentioned herein belong to their respective owners.
Please see credits for attibutions and further copyright information.

  Follow gcmap on Facebook Follow gcmap on Twitter Follow gcmap on Google+ GCmap on LinkedIn

hCard Microformat

Geo Microformat